Time,TemperatureF,DewpointF,PressureIn,WindDirection,WindDirectionDegrees,WindSpeedMPH,WindSpeedGustMPH,Humidity,HourlyPrecipIn,Conditions,Clouds,dailyrainin,SoftwareType,DateUTC
2013-09-24 00:03:00,51.0,49.0,-100.00,ESE,120,5.0,9.0,91,-99.99,,,-99.99,,2013-09-24 05:03:00,
2013-09-24 00:43:00,49.0,47.0,-100.00,East,100,4.0,7.0,93,-99.99,,,-99.99,,2013-09-24 05:43:00,
2013-09-24 00:53:00,49.0,47.0,-100.00,East,100,4.0,7.0,93,-99.99,,,-99.99,,2013-09-24 05:53:00,
2013-09-24 01:02:00,49.0,47.0,-100.00,East,100,4.0,7.0,93,-99.99,,,-99.99,,2013-09-24 06:02:00,
2013-09-24 01:11:00,47.0,46.0,-100.00,ENE,65,1.0,3.0,95,-99.99,,,-99.99,,2013-09-24 06:11:00,
2013-09-24 01:12:00,49.0,47.0,-100.00,East,100,4.0,7.0,93,-99.99,,,-99.99,,2013-09-24 06:12:00,
2013-09-24 01:42:00,47.0,46.0,-100.00,ENE,65,1.0,3.0,95,-99.99,,,-99.99,,2013-09-24 06:42:00,
2013-09-24 01:52:00,47.0,46.0,-100.00,ENE,65,1.0,3.0,95,-99.99,,,-99.99,,2013-09-24 06:52:00,
2013-09-24 02:03:00,47.0,46.0,-100.00,ENE,65,1.0,3.0,95,-99.99,,,-99.99,,2013-09-24 07:03:00,
2013-09-24 02:10:00,46.0,45.0,-100.00,NE,55,2.0,6.0,97,-99.99,,,-99.99,,2013-09-24 07:10:00,
2013-09-24 02:43:00,46.0,45.0,-100.00,NE,55,2.0,6.0,97,-99.99,,,-99.99,,2013-09-24 07:43:00,
2013-09-24 02:52:00,46.0,45.0,-100.00,NE,55,2.0,6.0,97,-99.99,,,-99.99,,2013-09-24 07:52:00,
2013-09-24 03:02:00,46.0,45.0,-100.00,NE,55,2.0,6.0,97,-99.99,,,-99.99,,2013-09-24 08:02:00,
2013-09-24 03:42:00,43.0,42.0,-100.00,ENE,65,4.0,6.0,97,-99.99,,,-99.99,,2013-09-24 08:42:00,
2013-09-24 03:52:00,43.0,42.0,-100.00,ENE,65,4.0,6.0,97,-99.99,,,-99.99,,2013-09-24 08:52:00,
2013-09-24 04:01:00,43.0,42.0,-100.00,ENE,65,4.0,6.0,97,-99.99,,,-99.99,,2013-09-24 09:01:00,
2013-09-24 04:12:00,43.0,42.0,-100.00,ENE,65,4.0,6.0,97,-99.99,,,-99.99,,2013-09-24 09:12:00,
2013-09-24 04:43:00,45.0,44.0,-100.00,ENE,60,3.0,6.0,98,-99.99,,,-99.99,,2013-09-24 09:43:00,
2013-09-24 04:54:00,45.0,44.0,-100.00,ENE,60,3.0,6.0,98,-99.99,,,-99.99,,2013-09-24 09:54:00,
2013-09-24 05:03:00,45.0,44.0,-100.00,ENE,60,3.0,6.0,98,-99.99,,,-99.99,,2013-09-24 10:03:00,
2013-09-24 05:42:00,45.0,44.0,-100.00,ENE,65,3.0,5.0,98,-99.99,,,-99.99,,2013-09-24 10:42:00,
2013-09-24 05:53:00,45.0,44.0,-100.00,ENE,65,3.0,5.0,98,-99.99,,,-99.99,,2013-09-24 10:53:00,
2013-09-24 06:03:00,45.0,44.0,-100.00,ENE,65,3.0,5.0,98,-99.99,,,-99.99,,2013-09-24 11:03:00,
2013-09-24 06:11:00,45.0,44.0,-100.00,ENE,65,3.0,5.0,98,-99.99,,,-99.99,,2013-09-24 11:11:00,
2013-09-24 06:42:00,46.0,45.0,-100.00,ENE,60,3.0,7.0,98,-99.99,,,-99.99,,2013-09-24 11:42:00,
2013-09-24 06:52:00,46.0,45.0,-100.00,ENE,60,3.0,7.0,98,-99.99,,,-99.99,,2013-09-24 11:52:00,
2013-09-24 07:01:00,46.0,45.0,-100.00,ENE,60,3.0,7.0,98,-99.99,,,-99.99,,2013-09-24 12:01:00,
2013-09-24 07:11:00,46.0,45.0,-100.00,NE,55,2.0,4.0,98,-99.99,,,-99.99,,2013-09-24 12:11:00,
2013-09-24 07:42:00,46.0,45.0,-100.00,NE,55,2.0,4.0,98,-99.99,,,-99.99,,2013-09-24 12:42:00,
2013-09-24 07:52:00,46.0,45.0,-100.00,NE,55,2.0,4.0,98,-99.99,,,-99.99,,2013-09-24 12:52:00,
2013-09-24 08:02:00,46.0,45.0,-100.00,NE,55,2.0,4.0,98,-99.99,,,-99.99,,2013-09-24 13:02:00,
2013-09-24 08:42:00,50.0,49.0,-100.00,ENE,65,3.0,8.0,98,-99.99,,,-99.99,,2013-09-24 13:42:00,
2013-09-24 08:52:00,50.0,49.0,-100.00,ENE,65,3.0,8.0,98,-99.99,,,-99.99,,2013-09-24 13:52:00,
2013-09-24 09:02:00,50.0,49.0,-100.00,ENE,65,3.0,8.0,98,-99.99,,,-99.99,,2013-09-24 14:02:00,
2013-09-24 09:12:00,50.0,49.0,-100.00,ENE,65,3.0,8.0,98,-99.99,,,-99.99,,2013-09-24 14:12:00,
2013-09-24 09:42:00,55.0,53.0,-100.00,East,85,4.0,9.0,96,-99.99,,,-99.99,,2013-09-24 14:42:00,
2013-09-24 09:52:00,55.0,53.0,-100.00,East,85,4.0,9.0,96,-99.99,,,-99.99,,2013-09-24 14:52:00,
2013-09-24 10:01:00,55.0,53.0,-100.00,East,85,4.0,9.0,96,-99.99,,,-99.99,,2013-09-24 15:01:00,
2013-09-24 10:11:00,55.0,53.0,-100.00,East,85,4.0,9.0,96,-99.99,,,-99.99,,2013-09-24 15:11:00,
2013-09-24 10:43:00,59.0,50.0,-100.00,East,100,5.0,11.0,71,-99.99,,,-99.99,,2013-09-24 15:43:00,
2013-09-24 10:54:00,59.0,50.0,-100.00,East,100,5.0,11.0,71,-99.99,,,-99.99,,2013-09-24 15:54:00,
2013-09-24 11:03:00,59.0,50.0,-100.00,East,100,5.0,11.0,71,-99.99,,,-99.99,,2013-09-24 16:03:00,
2013-09-24 11:11:00,66.0,49.0,-100.00,ENE,75,3.0,9.0,54,-99.99,,,-99.99,,2013-09-24 16:11:00,
2013-09-24 11:43:00,66.0,49.0,-100.00,ENE,75,3.0,9.0,54,-99.99,,,-99.99,,2013-09-24 16:43:00,
2013-09-24 11:53:00,66.0,49.0,-100.00,ENE,75,3.0,9.0,54,-99.99,,,-99.99,,2013-09-24 16:53:00,
2013-09-24 12:02:00,66.0,49.0,-100.00,ENE,75,3.0,9.0,54,-99.99,,,-99.99,,2013-09-24 17:02:00,
2013-09-24 12:11:00,71.0,47.0,-100.00,ENE,65,4.0,9.0,43,-99.99,,,-99.99,,2013-09-24 17:11:00,
2013-09-24 12:43:00,71.0,47.0,-100.00,ENE,65,4.0,9.0,43,-99.99,,,-99.99,,2013-09-24 17:43:00,
2013-09-24 12:54:00,71.0,47.0,-100.00,ENE,65,4.0,9.0,43,-99.99,,,-99.99,,2013-09-24 17:54:00,
2013-09-24 13:03:00,71.0,47.0,-100.00,ENE,65,4.0,9.0,43,-99.99,,,-99.99,,2013-09-24 18:03:00,
2013-09-24 13:42:00,71.0,45.0,-100.00,ENE,70,3.0,11.0,39,-99.99,,,-99.99,,2013-09-24 18:42:00,
2013-09-24 13:52:00,71.0,45.0,-100.00,ENE,70,3.0,11.0,39,-99.99,,,-99.99,,2013-09-24 18:52:00,
2013-09-24 14:02:00,71.0,45.0,-100.00,ENE,70,3.0,11.0,39,-99.99,,,-99.99,,2013-09-24 19:02:00,
2013-09-24 14:11:00,74.0,45.0,-100.00,East,95,2.0,11.0,36,-99.99,,,-99.99,,2013-09-24 19:11:00,
2013-09-24 14:42:00,74.0,45.0,-100.00,East,95,2.0,11.0,36,-99.99,,,-99.99,,2013-09-24 19:42:00,
2013-09-24 14:52:00,74.0,45.0,-100.00,East,95,2.0,11.0,36,-99.99,,,-99.99,,2013-09-24 19:52:00,
2013-09-24 15:02:00,74.0,45.0,-100.00,East,95,2.0,11.0,36,-99.99,,,-99.99,,2013-09-24 20:02:00,
2013-09-24 15:10:00,73.0,42.0,-100.00,ESE,110,7.0,10.0,32,-99.99,,,-99.99,,2013-09-24 20:10:00,
2013-09-24 15:42:00,73.0,42.0,-100.00,ESE,110,7.0,10.0,32,-99.99,,,-99.99,,2013-09-24 20:42:00,
2013-09-24 15:52:00,73.0,42.0,-100.00,ESE,110,7.0,10.0,32,-99.99,,,-99.99,,2013-09-24 20:52:00,
2013-09-24 16:02:00,73.0,42.0,-100.00,ESE,110,7.0,10.0,32,-99.99,,,-99.99,,2013-09-24 21:02:00,
2013-09-24 17:12:00,73.0,42.0,-100.00,SE,130,4.0,9.0,33,-99.99,,,-99.99,,2013-09-24 22:12:00,
2013-09-24 17:43:00,73.0,42.0,-100.00,SE,130,4.0,9.0,33,-99.99,,,-99.99,,2013-09-24 22:43:00,
2013-09-24 17:54:00,73.0,42.0,-100.00,SE,130,4.0,9.0,33,-99.99,,,-99.99,,2013-09-24 22:54:00,
2013-09-24 18:03:00,73.0,42.0,-100.00,SE,130,4.0,9.0,33,-99.99,,,-99.99,,2013-09-24 23:03:00,
2013-09-24 18:10:00,71.0,43.0,-100.00,East,80,3.0,6.0,37,-99.99,,,-99.99,,2013-09-24 23:10:00,
2013-09-24 18:43:00,71.0,43.0,-100.00,East,80,3.0,6.0,37,-99.99,,,-99.99,,2013-09-24 23:43:00,
2013-09-24 18:53:00,71.0,43.0,-100.00,East,80,3.0,6.0,37,-99.99,,,-99.99,,2013-09-24 23:53:00,
2013-09-24 19:02:00,71.0,43.0,-100.00,East,80,3.0,6.0,37,-99.99,,,-99.99,,2013-09-25 00:02:00,
2013-09-24 19:42:00,62.0,46.0,-100.00,NE,50,1.0,3.0,55,-99.99,,,-99.99,,2013-09-25 00:42:00,
2013-09-24 19:52:00,62.0,46.0,-100.00,NE,50,1.0,3.0,55,-99.99,,,-99.99,,2013-09-25 00:52:00,
2013-09-24 20:02:00,62.0,46.0,-100.00,NE,50,1.0,3.0,55,-99.99,,,-99.99,,2013-09-25 01:02:00,
2013-09-24 20:42:00,56.0,51.0,-100.00,ENE,60,2.0,3.0,81,-99.99,,,-99.99,,2013-09-25 01:42:00,
2013-09-24 20:52:00,56.0,51.0,-100.00,ENE,60,2.0,3.0,81,-99.99,,,-99.99,,2013-09-25 01:52:00,
2013-09-24 21:02:00,56.0,51.0,-100.00,ENE,60,2.0,3.0,81,-99.99,,,-99.99,,2013-09-25 02:02:00,
2013-09-24 21:42:00,57.0,50.0,-100.00,ENE,65,0.0,4.0,78,-99.99,,,-99.99,,2013-09-25 02:42:00,
2013-09-24 21:52:00,57.0,50.0,-100.00,ENE,65,0.0,4.0,78,-99.99,,,-99.99,,2013-09-25 02:52:00,
2013-09-24 22:02:00,57.0,50.0,-100.00,ENE,65,0.0,4.0,78,-99.99,,,-99.99,,2013-09-25 03:02:00,
2013-09-24 22:45:00,56.0,52.0,-100.00,ENE,60,2.0,7.0,86,-99.99,,,-99.99,,2013-09-25 03:45:00,
2013-09-24 22:55:00,56.0,52.0,-100.00,ENE,60,2.0,7.0,86,-99.99,,,-99.99,,2013-09-25 03:55:00,
2013-09-24 23:04:00,56.0,52.0,-100.00,ENE,60,2.0,7.0,86,-99.99,,,-99.99,,2013-09-25 04:04:00,
2013-09-24 23:43:00,53.0,51.0,-100.00,NE,50,1.0,5.0,90,-99.99,,,-99.99,,2013-09-25 04:43:00,
2013-09-24 23:54:00,53.0,51.0,-100.00,NE,50,1.0,5.0,90,-99.99,,,-99.99,,2013-09-25 04:54:00,